[[{"header":{"parameterUnit":"m.s-1","parameterCategory":1,"la1":30.2991,"la2":30.254,"lo1":-89.0895,"lo2":-89.0444,"dy":0.0017,"dx":0.0017,"nx":28,"ny":28,"refTime":"2024-08-24T09:00:00:Z","depth":0,"parameterNumber":2,"parameterNumberName":"U-component_of_WINDS"},"data":[0,0,0,0,0,0,0,0,0,0,0,0,0,0,0,0,0,0,0,0,0,0,0,0,0,0,0,0,0,0,0,0,0,0,0,0,0,0,0,0,0,0,0,0,0,0,0,0,0,0,0,0,0,0,0,0,0,0,-0.2416,-0.2416,0,-0.2402,-0.2402,-0.2402,-0.237,-0.2369,-0.2369,-0.2368,-0.2356,-0.2357,-0.2357,0,0,0,0,0,0,0,0,0,0,0,0,0,-0.2415,-0.2415,-0.2416,-0.2416,-0.2415,-0.2402,-0.2402,-0.2402,-0.237,-0.2369,-0.2369,-0.2368,-0.2356,-0.2357,-0.2357,0,0,0,0,0,0,0,0,0,0,0,0,0,-0.241,-0.2415,-0.2416,-0.2398,-0.2396,-0.2403,-0.2402,-0.2402,-0.237,-0.2369,-0.2368,-0.2367,-0.2356,-0.2357,-0.2357,-0.238,0,0,-0.2359,-0.2359,0,0,0,0,0,0,0,0,-0.241,-0.241,-0.2401,-0.2399,-0.2397,-0.2387,-0.2398,-0.2395,-0.2371,-0.238,-0.2368,-0.2367,-0.2367,-0.2367,-0.2367,-0.238,-0.2379,-0.2359,-0.2359,-0.2359,-0.2359,0,0,0,0,0,0,0,-0.2411,-0.241,-0.2411,-0.2401,-0.2398,-0.2391,-0.2389,-0.2397,-0.238,-0.2379,-0.2377,-0.2376,-0.2366,-0.2366,-0.2366,-0.2379,-0.2359,-0.2359,-0.2359,-0.2359,-0.2411,-0.2412,0,0,0,0,0,0,-0.2413,-0.2411,-0.2411,-0.241,-0.2401,-0.2392,-0.239,-0.2391,-0.238,-0.2377,-0.2377,-0.2374,-0.2366,-0.2366,-0.2366,-0.2392,-0.2359,-0.2359,-0.236,-0.241,-0.2411,-0.2412,0,0,0,0,0,0,-0.2414,-0.2414,-0.2411,-0.241,-0.2409,-0.2393,-0.2395,-0.2392,-0.2391,-0.2377,-0.2374,-0.238,-0.2365,-0.2365,-0.2377,-0.2392,-0.236,-0.236,-0.2408,-0.241,-0.2412,-0.2446,0,0,0,0,0,0,-0.2414,-0.2414,-0.2422,-0.241,-0.2409,-0.2423,-0.2396,-0.2392,-0.2392,-0.2389,-0.238,-0.2377,-0.2364,-0.2376,-0.2377,-0.2392,-0.236,-0.2407,-0.2409,-0.2411,-0.2444,-0.2449,-0.2453,0,0,0,0,0,-0.2414,-0.2433,-0.2423,-0.2423,-0.2419,-0.2423,-0.2423,-0.2407,-0.2393,-0.2402,-0.2393,-0.2377,-0.239,-0.2378,-0.2379,-0.2393,-0.2406,-0.2409,-0.2411,-0.2442,-0.2448,-0.2453,0,0,0,0,0,0,-0.2448,-0.2431,-0.242,-0.2435,-0.2431,-0.2418,-0.2428,-0.2414,-0.2414,-0.2412,-0.2393,-0.2391,-0.2406,-0.24,-0.2388,-0.2415,-0.2395,-0.2398,-0.2418,-0.2424,-0.2429,-0.243,-0.2361,0,0,0,0,0,-0.2457,-0.2461,-0.2446,-0.2462,-0.246,-0.2445,-0.2446,-0.2434,-0.2429,-0.2427,-0.2419,-0.2415,-0.2418,-0.2421,-0.2423,-0.2442,-0.244,-0.2453,-0.2458,-0.2462,-0.2465,-0.2475,-0.2481,-0.242,-0.242,-0.242,0,0,-0.2476,-0.2468,-0.2472,-0.2468,-0.2464,-0.2469,-0.2443,-0.245,-0.2454,-0.2429,-0.2439,-0.2433,-0.2428,-0.2444,-0.245,-0.244,-0.2481,-0.2465,-0.2468,-0.2469,-0.2478,-0.2484,-0.2489,-0.2422,-0.2421,-0.2421,0,0,-0.2515,-0.2508,-0.252,-0.2516,-0.2509,-0.2498,-0.2501,-0.249,-0.2485,-0.2495,-0.2476,-0.2481,-0.2486,-0.2483,-0.2482,-0.2519,-0.2505,-0.252,-0.2545,-0.2556,-0.2561,-0.2565,-0.2579,-0.2584,-0.2523,-0.2523,-0.2523,0,-0.254,-0.2547,-0.2529,-0.2537,-0.2536,-0.2512,-0.2525,-0.2521,-0.2516,-0.2516,-0.2504,-0.251,-0.2505,-0.252,-0.2529,-0.2529,-0.2532,-0.2522,-0.2561,-0.2565,-0.2569,-0.2582,-0.2587,-0.2525,-0.2525,-0.2524,-0.2524,0,-0.2579,-0.2584,-0.2594,-0.2589,-0.2589,-0.26,-0.2583,-0.2586,-0.2574,-0.2565,-0.2576,-0.2569,-0.2569,-0.2571,-0.256,-0.2585,-0.2579,-0.2564,-0.2544,-0.2577,-0.2589,-0.2594,-0.2528,-0.2527,-0.2526,-0.2526,0,0,-0.2639,-0.2622,-0.2627,-0.2624,-0.2614,-0.2618,-0.2627,-0.2627,-0.263,-0.2626,-0.2634,-0.2639,-0.2626,-0.2625,-0.2613,-0.2622,-0.2652,-0.2606,-0.2606,-0.2616,-0.268,-0.2692,-0.2698,-0.2642,-0.2643,-0.2644,-0.2681,0,-0.2676,-0.269,-0.2674,-0.2692,-0.2697,-0.2674,-0.2682,-0.2677,-0.2669,-0.2672,-0.2663,-0.2667,-0.2648,-0.2648,-0.2656,-0.2647,-0.2665,-0.2644,-0.2651,-0.2651,-0.2654,-0.2704,-0.2717,-0.2752,-0.2685,-0.2686,-0.2687,0,-0.2721,-0.2719,-0.2738,-0.2726,-0.2728,-0.2735,-0.2734,-0.2737,-0.2731,-0.2724,-0.2723,-0.2708,-0.2717,-0.2696,-0.2709,-0.2695,-0.2696,-0.2692,-0.2693,-0.2694,-0.2672,-0.2708,-0.2763,-0.2769,-0.2694,-0.2693,-0.2693,0,-0.2764,-0.2766,-0.2778,-0.2776,-0.2763,-0.2769,-0.2764,-0.2757,-0.2757,-0.2756,-0.2756,-0.2756,-0.2756,-0.2757,-0.2743,-0.2729,-0.2757,-0.2735,-0.2753,-0.2753,-0.2761,-0.2761,-0.2819,-0.276,-0.276,-0.276,-0.276,0,-0.2808,-0.2821,-0.2797,-0.2804,-0.2818,-0.2799,-0.2813,-0.2805,-0.2799,-0.2805,-0.2785,-0.2791,-0.2771,-0.2776,-0.2764,-0.2777,-0.2777,-0.2772,-0.277,-0.2775,-0.2776,-0.2777,-0.2774,-0.2761,-0.2761,-0.2761,-0.2761,0,-0.286,-0.2844,-0.2855,-0.2841,-0.2838,-0.2849,-0.2837,-0.2844,-0.2834,-0.2841,-0.2842,-0.2827,-0.283,-0.2816,-0.2817,-0.281,-0.2829,-0.2821,-0.2831,-0.2829,-0.2848,-0.2846,-0.2909,-0.2916,-0.2852,-0.2853,-0.2853,0,-0.2889,-0.2898,-0.2885,-0.2887,-0.2883,-0.2886,-0.2887,-0.2868,-0.287,-0.2863,-0.2871,-0.2872,-0.2873,-0.288,-0.287,-0.2871,-0.2864,-0.2885,-0.2864,-0.2869,-0.2865,-0.2866,-0.2867,-0.2891,-0.2891,-0.2892,-0.2892,0,-0.2943,-0.2935,-0.2936,-0.2934,-0.2935,-0.2933,-0.293,-0.2933,-0.2913,-0.2915,-0.2919,-0.2919,-0.292,-0.2923,-0.2921,-0.2917,-0.2902,-0.2899,-0.2903,-0.291,-0.2915,-0.2913,-0.2844,-0.2898,-0.2898,-0.2897,-0.2897,-0.2897,-0.2985,-0.2992,-0.2984,-0.2986,-0.2981,-0.2978,-0.2984,-0.2974,-0.2976,-0.2975,-0.2964,-0.2969,-0.2963,-0.296,-0.2956,-0.2961,-0.2951,-0.2957,-0.2959,-0.2961,-0.2965,-0.2913,-0.2961,-0.296,-0.296,-0.296,-0.296,0,-0.304,-0.3033,-0.3034,-0.303,-0.3032,-0.3016,-0.3011,-0.3014,-0.3019,-0.3014,-0.3014,-0.3018,-0.302,-0.3009,-0.301,-0.3016,-0.3009,-0.3017,-0.3017,-0.3016,-0.2973,-0.297,-0.3022,-0.3022,-0.3022,-0.3022,-0.3022,-0.3022,-0.3068,-0.3079,-0.307,-0.3079,-0.3072,-0.3077,-0.3075,-0.3073,-0.3069,-0.3074,-0.3075,-0.3067,-0.306,-0.306,-0.3062,-0.3058,-0.306,-0.3071,-0.3065,-0.3025,-0.3019,-0.3014,-0.301,-0.3071,-0.3071,-0.3108,-0.3109,-0.3109]},{"header":{"parameterUnit":"m.s-1","parameterCategory":1,"la1":30.2991,"la2":30.254,"lo1":-89.0895,"lo2":-89.0444,"dy":0.0017,"dx":0.0017,"nx":28,"ny":28,"refTime":"2024-08-24T09:00:00:Z","depth":0,"parameterNumber":3,"parameterNumberName":"V-component_of_WINDS"},"data":[0,0,0,0,0,0,0,0,0,0,0,0,0,0,0,0,0,0,0,0,0,0,0,0,0,0,0,0,0,0,0,0,0,0,0,0,0,0,0,0,0,0,0,0,0,0,0,0,0,0,0,0,0,0,0,0,0,0,1.1153,1.1152,0,1.1118,1.1118,1.1117,1.1096,1.1095,1.1095,1.1095,1.1057,1.1056,1.1055,0,0,0,0,0,0,0,0,0,0,0,0,0,1.1197,1.1197,1.1153,1.1152,1.1152,1.1118,1.1118,1.1117,1.1096,1.1095,1.1095,1.1095,1.1057,1.1056,1.1055,0,0,0,0,0,0,0,0,0,0,0,0,0,1.1172,1.1196,1.1153,1.1137,1.1135,1.1118,1.1118,1.1117,1.1096,1.1095,1.1095,1.1095,1.1058,1.1056,1.1055,1.105,0,0,1.1051,1.105,0,0,0,0,0,0,0,0,1.1173,1.117,1.114,1.1138,1.1136,1.1111,1.1119,1.1094,1.1096,1.1111,1.1095,1.1095,1.1075,1.1072,1.1066,1.1048,1.1046,1.1051,1.105,1.1049,1.1049,0,0,0,0,0,0,0,1.1175,1.1171,1.1139,1.1139,1.1137,1.1131,1.1127,1.1114,1.1094,1.1109,1.1108,1.1104,1.1074,1.1067,1.1065,1.1046,1.1051,1.1049,1.1049,1.1048,1.1021,1.1021,0,0,0,0,0,0,1.118,1.1173,1.114,1.1138,1.1155,1.113,1.1126,1.1119,1.1094,1.109,1.1104,1.1103,1.107,1.1066,1.1063,1.1055,1.1049,1.1048,1.1047,1.1021,1.1021,1.1021,0,0,0,0,0,0,1.1181,1.1177,1.1141,1.1155,1.115,1.113,1.1122,1.1119,1.1112,1.109,1.1086,1.1101,1.1069,1.1065,1.1053,1.1053,1.1047,1.1046,1.1021,1.1021,1.1021,1.1039,0,0,0,0,0,0,1.1182,1.1177,1.1176,1.1155,1.1149,1.1133,1.1122,1.1118,1.111,1.1108,1.1087,1.1083,1.1069,1.1055,1.1052,1.1051,1.1045,1.1021,1.1021,1.1021,1.1038,1.104,1.1041,0,0,0,0,0,1.1184,1.1182,1.1176,1.1172,1.1147,1.1133,1.113,1.1114,1.111,1.1108,1.1094,1.1083,1.1054,1.1054,1.105,1.1049,1.102,1.1021,1.1021,1.1038,1.104,1.1041,0,0,0,0,0,0,1.1202,1.1179,1.1172,1.1164,1.1151,1.1129,1.1126,1.1117,1.1104,1.1103,1.1084,1.1079,1.1069,1.1058,1.1059,1.1043,1.1036,1.1035,1.105,1.1052,1.1053,1.1056,1.1044,0,0,0,0,0,1.1206,1.1197,1.1177,1.1171,1.1165,1.1147,1.114,1.113,1.1115,1.1109,1.1094,1.1079,1.1066,1.1059,1.1046,1.1037,1.1031,1.1034,1.1035,1.1037,1.1036,1.103,1.1031,1.1022,1.1022,1.1022,0,0,1.1212,1.1198,1.1194,1.1175,1.1163,1.1154,1.1142,1.1133,1.1125,1.1107,1.1095,1.1084,1.1066,1.1055,1.105,1.1046,1.1037,1.1037,1.1038,1.1037,1.103,1.1031,1.1032,1.1022,1.1022,1.1022,0,0,1.1219,1.1208,1.1202,1.1191,1.1174,1.1162,1.1161,1.1141,1.1133,1.1121,1.1107,1.1097,1.1076,1.1063,1.1054,1.1056,1.1046,1.1052,1.1059,1.1053,1.1054,1.1055,1.1055,1.1055,1.1052,1.1052,1.1052,0,1.1229,1.1215,1.12,1.1191,1.1183,1.1167,1.116,1.115,1.1129,1.1123,1.1119,1.1092,1.1079,1.1065,1.1066,1.1059,1.1056,1.1055,1.1055,1.1056,1.1056,1.1056,1.1056,1.1053,1.1053,1.1053,1.1053,0,1.1228,1.1218,1.1215,1.1197,1.1188,1.118,1.1163,1.1155,1.1146,1.1134,1.1121,1.1105,1.1088,1.1084,1.1074,1.1068,1.1066,1.1059,1.1052,1.1058,1.1057,1.1057,1.1054,1.1054,1.1054,1.1054,0,0,1.1245,1.1219,1.1218,1.1209,1.1189,1.1181,1.1172,1.1156,1.115,1.1136,1.1128,1.111,1.1103,1.1093,1.1082,1.1076,1.1078,1.107,1.1069,1.1071,1.107,1.1075,1.1075,1.1071,1.1071,1.1071,1.1071,0,1.1249,1.1233,1.1219,1.1208,1.1198,1.1183,1.1175,1.1161,1.115,1.1139,1.1126,1.1114,1.1106,1.11,1.1094,1.1079,1.1077,1.1079,1.1062,1.1062,1.1067,1.1075,1.108,1.1081,1.1071,1.1071,1.1071,0,1.1251,1.1238,1.1227,1.1207,1.1203,1.1196,1.118,1.1171,1.1155,1.1146,1.1135,1.1123,1.1112,1.1106,1.109,1.1091,1.1083,1.1075,1.1075,1.1072,1.1066,1.1072,1.1081,1.1081,1.107,1.107,1.107,0,1.1264,1.1244,1.1235,1.1228,1.1205,1.12,1.1191,1.1174,1.1166,1.1152,1.1146,1.1131,1.1122,1.111,1.1094,1.1091,1.1079,1.1072,1.1071,1.1071,1.1068,1.1069,1.1076,1.1064,1.1064,1.1064,1.1064,0,1.1269,1.1262,1.124,1.1234,1.1226,1.1209,1.1201,1.119,1.1176,1.1166,1.1152,1.1143,1.1123,1.1111,1.1098,1.1086,1.1082,1.1075,1.1071,1.1076,1.1077,1.107,1.1069,1.1064,1.1064,1.1064,1.1064,0,1.1282,1.1267,1.1256,1.1235,1.123,1.1225,1.1207,1.12,1.1188,1.1176,1.1172,1.1152,1.1138,1.1121,1.1101,1.1092,1.1081,1.1076,1.1087,1.1085,1.1084,1.1084,1.1087,1.1086,1.1076,1.1076,1.1076,0,1.1286,1.1281,1.126,1.1253,1.1244,1.1233,1.1225,1.1208,1.1199,1.118,1.1175,1.116,1.1147,1.1125,1.1108,1.1092,1.1087,1.1089,1.1084,1.1089,1.1086,1.1086,1.1085,1.109,1.109,1.109,1.109,0,1.1294,1.1287,1.1276,1.1262,1.1253,1.1241,1.1228,1.1223,1.1203,1.1194,1.118,1.117,1.115,1.1134,1.1117,1.1105,1.1094,1.1092,1.1091,1.1095,1.1101,1.1097,1.1089,1.1092,1.1092,1.1092,1.1091,1.1091,1.1303,1.1297,1.1282,1.1269,1.1258,1.1246,1.1239,1.1226,1.1214,1.1197,1.1187,1.1173,1.1156,1.1131,1.112,1.1108,1.1104,1.1103,1.1102,1.1102,1.1103,1.1104,1.1105,1.1105,1.1105,1.1105,1.1105,0,1.131,1.1299,1.1288,1.1271,1.1261,1.1253,1.1238,1.123,1.1218,1.1204,1.1191,1.1175,1.116,1.1142,1.1125,1.1119,1.1113,1.1115,1.1115,1.1113,1.1108,1.111,1.112,1.112,1.112,1.112,1.112,1.112,1.1312,1.1302,1.1293,1.1277,1.1266,1.1253,1.1245,1.1233,1.1222,1.1204,1.1192,1.1181,1.1165,1.1147,1.1133,1.1128,1.1122,1.1125,1.1118,1.1114,1.1113,1.1112,1.1114,1.1124,1.1124,1.1124,1.1124,1.1124]}]]